Find Starlink 30412

NORAD ID: 57854 Int'l Des: 2023-141 Owner: SPXS Country: US Constellation: starlink operational
LEOCIRCULAR

当前视图

正在加载3D地球...

About Starlink 30412

Starlink 30412 (NORAD 57854) is a starlink constellation satellite (v2 mini) launched Sep 12, 2023 by SPXS of US. It operates in LEO, CIRCULAR orbit with a mass of 730.00 kg.

即将过境

Passes for default location (London). Set your location on the main map for personalized predictions.

高度历史

Loading altitude history...

两行轨道根数

1 57854U 23141Q 26265.21927976 .00000895 00000-0 37629-4 0 9997
2 57854 53.1590 89.4141 0001638 72.0527 288.0654 15.34395845170448
Epoch: Sep 22, 2026 • Age: 20 hours

当前状态

高度 466.1 km
远地点 / 近地点 N/A
速度 7.63 km/s
星下点 -12.48°S, 51.29°E
发射日期 Sep 12, 2023
运行时间 3 years
类型 internet

技术详情

分类 Payload
质量 730.00 kg
干质量 700.00 kg
长度 0.30 m
跨度 29.00 m
形状 ? Box + pan
制造商 SPXS
平台类型 Starlink V2M
阶段状态 In Orbit
所有者/国家 SPXS/US

Most Searched